Tracking 23731 objects as of 27-Sep-2021
HD Live streaming from Space Station
objects crossing your sky now

YUNHAI 2 4

Track YUNHAI 2 4 now!
10-day predictions


NORAD ID: 43912
Int'l Code: 2018-112D
Perigee: 795.3 km
Apogee: 817.8 km
Inclination: 50.0 °
Period: 100.9 minutes
Semi major axis: 7177 km
RCS: Unknown
Launch date: December 29, 2018
Source: People's Republic of China (PRC)
Launch site: Jiuquan Satellite Launch Center, China (JSC)
aabbcc
Your satellite tracking list
Your tracking list is empty




NASA's NSSDC Master Catalog

Two Line Element Set (TLE):
1 43912U 18112D   21269.86432126  .00000017  00000-0  71937-4 0  9993
2 43912  50.0128  38.0059 0015667  56.7898 303.4525 14.27697707141132
Source of the keplerian elements: AFSPC